ECMWFFLT1_prec_cthk_096.txt.gz
RH
81 86 86 83 82 78 72 67 62 60 60 58 55 52 48 45 43 38 34 31 31 31 32 33 34 34 34 37 38 38 38 39 42 46 50 53 55 58 62 63 61 59 57 54 53 51 50 47 44 43 43 44 45 46 46 45 44 41 39 38 38 39 41
76 82 86 85 84 82 78 74 69 64 61 60 59 57 54 49 46 42 39 35 32 31 31 32 33 34 34 34 36 37 38 39 40 43 46 50 52 54 59 64 63 59 57 55 53 52 49 46 43 41 41 41 42 45 47 47 45 42 39 39 39 39 40
72 78 83 84 82 84 83 80 77 72 66 64 63 62 60 55 49 45 45 43 37 33 32 32 33 33 34 33 33 35 38 39 40 42 43 45 49 51 55 61 62 59 56 54 53 51 49 46 44 41 42 41 42 44 46 47 46 43 41 40 39 39 39
74 76 81 85 84 86 87 84 82 80 75 71 67 65 63 60 55 50 49 49 43 37 33 32 33 32 33 32 31 33 36 38 40 41 42 42 45 49 52 56 58 57 56 54 53 52 50 48 46 43 42 42 43 45 47 47 46 46 46 43 40 39 39
77 78 81 86 87 86 87 85 84 83 81 78 74 71 67 64 62 56 53 52 49 43 36 34 34 32 31 31 31 32 34 36 37 38 40 40 41 44 48 52 53 53 55 55 54 53 52 50 48 45 44 42 43 45 48 48 46 47 48 47 44 42 39
77 80 82 85 86 86 85 84 84 84 85 83 81 79 74 70 67 63 58 55 52 49 42 36 35 33 31 30 30 31 31 33 34 34 36 38 39 40 43 48 50 50 52 55 55 55 54 52 50 49 46 42 40 41 43 45 45 46 48 48 46 43 40
75 80 82 82 83 84 84 83 82 82 85 86 84 83 80 75 71 68 65 60 56 55 49 41 37 35 32 29 29 29 30 31 32 32 34 36 38 38 40 44 48 48 50 52 54 54 54 53 50 50 48 43 39 37 37 38 41 42 45 46 44 41 40
75 77 80 81 79 78 80 82 82 81 83 85 85 85 83 80 76 72 69 67 63 61 57 51 45 39 35 32 30 29 28 30 31 32 32 33 35 37 38 41 44 46 47 49 51 51 50 50 50 49 47 43 39 37 35 34 35 38 41 44 42 40 41
75 77 80 81 79 76 77 79 82 82 83 84 85 86 86 83 80 76 73 71 69 67 64 61 56 50 41 35 33 31 30 30 30 31 32 32 32 34 35 37 41 45 45 45 48 49 47 47 49 48 46 42 39 37 36 34 34 36 38 41 41 40 42
75 77 79 79 77 76 75 78 80 80 81 83 84 85 84 84 82 80 78 76 73 71 71 69 65 61 51 41 36 34 33 32 31 31 32 32 31 31 32 34 38 42 44 43 45 48 47 46 46 47 46 43 40 38 37 35 34 35 36 38 40 39 40
76 76 75 75 75 74 73 75 77 77 78 78 78 79 81 82 82 81 80 79 76 76 78 76 72 68 61 51 43 38 35 34 34 32 31 32 32 31 31 32 35 39 42 43 43 46 48 47 46 48 47 44 41 38 37 37 36 35 35 36 37 37 38
77 77 74 72 73 73 73 73 73 75 75 73 74 76 78 79 79 81 82 82 80 79 80 80 78 74 69 62 55 48 41 36 35 34 32 31 32 32 32 32 32 36 40 41 42 44 46 48 48 50 49 44 41 38 37 37 36 35 36 36 35 35 35
72 74 75 73 71 71 72 73 72 71 70 71 72 74 76 77 78 80 82 84 84 82 82 83 83 81 77 72 67 62 54 45 39 38 35 32 31 32 33 33 32 33 36 39 41 42 44 47 48 50 50 46 42 39 37 36 35 34 35 35 35 34 33
68 69 71 72 71 69 68 69 69 67 67 72 76 77 77 77 78 78 81 84 85 84 85 86 85 85 84 82 79 75 69 60 50 45 41 38 36 34 33 34 33 32 33 36 39 41 43 46 48 49 50 48 45 40 37 35 33 32 32 33 33 33 32
71 69 68 68 69 68 66 65 65 65 65 70 75 78 78 78 78 79 81 84 86 86 87 87 84 84 84 85 86 84 79 72 63 56 49 44 42 40 37 35 35 34 33 34 36 39 43 45 48 49 49 48 46 44 40 36 33 32 32 32 32 32 32
71 73 73 70 68 67 65 62 62 62 61 63 70 76 78 78 80 81 83 85 86 86 88 88 86 86 86 85 86 87 84 79 74 68 60 52 47 46 44 40 39 38 38 35 34 36 41 45 48 50 50 48 48 46 44 40 36 33 33 33 33 33 32
68 72 72 69 68 67 64 60 59 60 59 60 67 76 79 79 81 84 87 87 87 87 88 89 90 91 91 89 87 88 87 86 84 78 71 65 58 53 50 46 43 43 42 40 38 37 39 43 46 49 50 50 49 48 46 44 41 37 34 33 33 33 32
63 65 64 64 64 62 59 57 57 57 57 60 65 72 78 81 83 86 87 87 88 90 88 88 89 89 89 89 88 87 87 88 88 85 81 78 73 67 62 54 47 46 47 47 44 41 42 44 45 48 49 50 49 48 47 45 43 41 38 35 33 32 32
56 58 61 63 64 63 62 63 63 60 58 61 64 67 72 77 81 85 86 84 86 87 85 85 86 87 88 90 89 89 87 86 87 87 88 87 83 79 78 70 58 52 52 51 48 45 43 43 45 46 47 49 49 48 46 45 43 42 40 38 36 33 32
54 57 63 67 71 73 74 74 73 69 64 63 65 66 67 72 78 82 84 84 84 84 83 84 86 87 89 90 91 91 91 90 90 90 91 90 87 85 84 81 74 67 61 57 56 54 47 41 41 43 45 47 48 47 46 45 43 41 40 39 38 36 34
55 58 64 70 74 76 76 75 73 73 71 67 67 67 67 69 74 77 79 81 82 82 83 85 87 88 89 89 89 90 90 91 92 92 91 91 90 88 85 83 82 81 75 69 68 68 59 46 40 40 41 42 42 43 43 43 42 41 40 39 39 38 37
54 55 59 65 70 72 74 73 70 69 70 69 68 68 68 69 71 72 74 77 77 79 83 86 88 89 87 86 87 88 88 89 90 90 91 91 90 90 88 86 86 86 84 79 76 75 71 62 52 47 44 43 42 41 41 40 40 40 40 39 39 39 38
52 51 52 56 61 66 68 70 70 67 66 66 65 65 67 69 70 69 70 72 74 76 80 83 84 85 83 82 85 87 86 86 87 89 91 92 91 91 90 89 88 87 86 86 83 80 78 75 71 65 57 52 50 48 45 43 42 42 42 42 42 41 41
52 50 52 54 58 61 63 66 69 68 64 63 63 62 62 63 62 61 60 63 67 72 76 79 81 82 80 78 81 84 84 83 84 86 89 90 90 91 90 89 88 88 87 87 87 86 83 81 80 77 69 61 57 55 53 51 50 48 48 47 47 48 50
55 53 54 57 60 62 63 65 68 67 64 62 61 62 62 61 59 56 54 55 58 62 68 73 75 77 77 76 76 78 79 80 81 83 85 85 86 87 89 90 90 89 89 88 88 88 87 85 85 84 80 73 65 61 61 61 61 60 61 61 59 56 56
58 56 55 58 61 63 64 64 65 65 64 62 62 62 62 61 60 58 55 54 54 54 59 65 68 70 72 74 74 72 71 70 71 74 77 79 80 81 83 85 87 88 88 88 88 88 88 88 88 87 86 82 76 72 71 72 71 72 72 72 69 63 59
59 58 56 57 61 62 61 60 60 61 61 61 61 60 60 58 56 55 53 52 50 50 53 58 62 63 65 68 70 68 65 62 62 66 68 68 69 72 73 72 74 78 82 84 85 86 87 89 89 88 89 89 85 82 81 80 79 78 77 76 75 71 68
62 61 59 58 59 61 60 58 58 58 59 58 57 57 55 54 52 50 49 49 48 47 49 52 54 55 56 59 61 62 61 59 59 63 66 65 64 67 68 66 65 69 74 78 80 82 85 88 89 88 89 90 88 86 86 85 84 83 82 82 82 82 81
64 62 60 58 59 60 60 57 54 53 53 53 53 51 49 48 47 46 45 45 46 46 45 46 47 47 47 48 51 53 54 55 57 61 65 65 64 64 64 64 63 65 67 70 74 79 83 86 87 87 87 86 85 85 87 87 86 86 87 87 87 87 88
66 63 59 57 56 58 59 58 53 49 46 46 46 46 46 45 44 44 43 43 44 45 44 43 43 44 43 44 45 47 48 48 50 53 56 58 59 58 57 57 59 61 61 61 64 70 76 80 82 84 85 85 83 84 86 86 84 84 85 86 85 86 86
66 63 60 57 55 54 55 56 55 50 46 43 42 41 42 43 44 44 44 44 44 44 43 43 42 42 43 44 43 44 44 44 44 45 46 48 50 51 51 52 53 55 56 55 55 58 65 70 72 74 78 81 80 81 83 85 84 84 83 82 81 81 81
61 60 55 52 51 51 50 51 52 51 49 46 44 43 42 43 45 47 47 46 46 45 44 44 44 43 43 43 41 41 41 43 44 43 43 43 43 45 47 49 51 52 52 52 52 53 57 61 62 62 66 69 70 70 72 75 79 80 81 81 80 78 78
63 63 55 49 47 47 46 46 47 48 47 45 44 43 42 43 45 48 50 50 49 48 45 44 43 43 43 42 41 41 40 40 41 42 42 42 42 42 43 45 47 48 50 51 52 52 53 55 56 56 57 58 59 59 59 60 62 63 65 67 69 69 69
66 67 63 58 55 52 50 49 49 49 46 43 40 38 37 39 41 45 49 52 53 52 50 47 45 42 41 41 40 39 39 38 37 37 37 38 39 39 40 41 41 42 43 45 47 48 49 49 51 52 53 53 54 54 54 54 55 54 53 53 54 56 56
67 68 67 66 65 62 59 56 54 52 49 45 42 38 35 35 35 37 40 44 48 50 52 52 51 48 45 43 41 39 38 37 36 35 34 34 34 34 34 35 35 36 37 38 39 40 42 43 44 46 48 49 50 51 51 50 51 50 49 47 45 45 44
65 68 69 69 68 67 66 63 59 54 50 46 42 39 37 36 35 35 36 37 39 42 46 49 51 51 51 49 48 46 44 42 40 38 36 35 34 34 34 34 33 33 33 33 34 34 36 37 38 39 41 42 43 44 44 43 42 41 40 40 38 36 35
61 63 65 66 66 66 66 63 58 54 50 46 41 37 36 35 35 37 37 38 38 40 42 44 46 48 49 50 51 51 50 49 47 44 42 39 37 36 36 36 37 36 34 33 33 33 33 33 33 33 34 34 34 34 34 34 33 32 31 30 29 29 28
57 57 58 59 60 60 58 55 52 50 47 44 40 36 34 34 34 35 36 37 39 41 43 45 46 46 46 47 49 50 51 51 50 48 46 44 41 38 36 34 34 35 35 34 34 33 33 32 31 30 30 29 28 28 27 27 27 26 25 23 23 22 23

ECMWFFLT1_prec_cthk_102.txt.gz
RH
78 78 74 69 64 62 59 54 52 53 54 52 49 48 47 45 43 41 40 37 37 41 41 40 40 38 38 39 40 41 41 42 44 50 55 59 65 66 63 61 60 59 60 59 58 55 50 47 47 46 44 42 41 40 40 39 37 36 34 32 33 34 35
78 79 77 73 70 69 66 60 55 55 55 54 53 53 52 50 45 39 35 33 35 39 40 41 40 39 39 39 39 40 40 41 42 46 52 55 59 62 64 63 61 59 59 59 60 57 51 47 46 45 44 44 44 41 40 40 38 37 37 34 33 34 34
77 79 80 80 79 78 74 66 60 57 57 57 57 57 54 52 48 39 33 31 32 35 38 40 40 39 39 39 39 40 40 41 41 44 49 53 55 59 63 62 61 62 60 57 57 57 53 49 47 46 45 45 46 43 41 42 41 39 38 35 34 36 35
77 80 81 83 85 84 79 73 66 61 60 60 60 58 54 50 47 42 37 34 32 33 36 38 39 39 39 39 39 40 40 40 41 44 49 53 53 56 61 62 61 64 62 57 56 56 55 52 48 45 43 43 44 43 41 42 43 41 38 36 36 38 36
75 78 79 81 84 83 80 79 74 68 65 63 63 61 55 49 46 43 42 38 35 35 35 36 40 41 39 38 39 40 41 41 40 43 47 51 51 52 55 59 62 63 63 61 59 55 51 50 50 47 42 39 40 42 41 41 43 42 39 37 38 41 40
72 74 75 79 81 80 80 82 79 74 70 66 64 64 60 54 49 46 45 42 40 40 39 35 37 40 38 38 40 40 41 41 39 41 44 47 49 50 50 54 58 61 62 63 62 57 52 51 52 49 45 43 43 44 44 43 45 47 43 39 40 43 43
68 70 73 78 81 80 82 83 80 77 74 70 67 66 64 59 54 53 52 50 47 46 44 38 38 39 38 38 40 40 39 40 39 40 42 45 47 48 48 49 52 56 59 62 63 60 56 53 52 49 47 48 47 46 46 43 43 48 48 43 40 42 43
67 69 71 75 79 80 82 84 82 81 78 73 69 69 68 64 60 60 59 58 56 53 50 45 43 42 39 37 38 38 38 39 40 40 40 44 47 47 48 48 48 51 55 59 60 60 58 57 55 51 48 50 50 47 45 42 41 46 50 48 44 43 45
69 71 69 71 77 79 81 83 85 85 83 79 74 71 69 65 63 63 61 60 60 58 54 50 49 48 44 38 36 36 37 38 40 40 39 41 44 46 47 47 48 48 51 54 56 58 59 59 58 55 50 49 49 44 43 41 40 44 47 47 45 44 45
72 73 72 71 74 77 80 83 83 85 85 81 78 76 73 70 67 64 62 60 59 59 58 55 53 52 48 41 36 36 40 40 40 41 41 41 42 43 44 45 47 47 47 48 51 55 57 58 60 58 51 49 48 44 42 40 37 39 41 41 41 41 42
72 74 74 74 74 75 78 81 81 81 82 80 79 79 78 78 75 71 68 66 64 64 62 60 58 55 51 46 41 39 41 43 41 40 41 41 41 42 42 43 45 46 46 45 46 50 54 56 58 57 52 51 52 49 44 40 36 35 37 39 39 39 41
72 72 75 75 75 74 74 75 76 76 76 76 77 78 79 80 81 79 78 75 72 71 67 63 61 59 55 53 50 43 40 41 42 40 41 41 40 41 43 43 43 44 46 46 46 48 50 53 56 57 53 51 53 53 49 43 39 35 34 37 39 39 42
72 72 75 75 74 74 73 72 72 72 72 72 73 76 78 79 79 80 81 79 78 77 74 70 67 65 60 58 57 53 47 43 41 40 41 41 40 40 42 44 45 45 46 46 46 47 48 50 53 55 55 52 52 53 51 46 42 37 32 33 38 40 42
71 71 73 74 74 74 73 73 73 73 74 74 75 78 80 82 82 81 81 80 79 80 82 81 78 74 69 64 62 62 61 57 51 45 41 40 40 40 40 42 44 45 45 44 44 45 46 48 52 54 54 54 54 53 51 47 44 40 33 31 35 39 41
68 67 70 72 72 71 71 72 73 73 76 77 78 80 81 82 83 82 82 81 81 82 84 86 85 83 79 75 70 69 69 69 65 57 49 43 39 38 38 40 42 43 44 43 42 42 44 46 50 53 53 55 56 55 53 51 48 45 40 36 35 38 40
64 63 65 68 70 70 69 69 70 70 71 73 76 77 78 78 78 80 81 83 84 84 85 86 87 86 85 83 81 78 76 74 72 69 63 54 47 42 39 39 39 39 41 41 41 41 42 42 45 49 52 53 55 56 55 53 52 50 44 39 37 39 40
64 62 62 64 68 70 70 68 69 68 68 69 72 73 74 74 75 77 81 84 84 85 87 87 86 86 86 85 85 86 84 81 79 78 77 71 63 55 49 46 44 40 37 37 38 39 39 39 40 44 48 51 52 54 54 55 55 53 47 42 39 38 39
65 64 63 65 68 70 70 70 69 69 69 68 68 69 70 72 72 73 76 78 80 82 84 85 85 85 85 85 86 87 88 86 84 84 85 83 77 69 62 57 55 51 43 37 35 37 37 37 37 38 42 47 50 50 52 54 55 55 51 46 42 39 38
66 66 66 68 69 68 68 68 68 68 68 67 67 66 68 70 70 68 68 70 74 78 81 83 83 83 84 84 86 87 88 88 88 87 88 88 85 80 73 67 65 64 58 49 41 38 37 37 38 37 38 43 47 48 50 53 54 55 54 50 47 44 40
66 68 68 68 67 65 64 64 64 64 64 67 69 67 66 68 68 66 66 67 70 74 76 78 79 79 80 82 85 87 88 89 91 90 90 90 88 86 83 79 76 73 70 65 57 50 44 41 41 41 39 39 42 45 47 49 50 52 53 52 50 48 44
67 67 67 65 65 65 63 63 64 63 61 66 71 72 70 70 69 69 69 69 68 69 70 73 75 77 80 82 85 87 88 89 91 92 92 92 92 90 87 84 83 82 79 75 71 66 61 56 52 48 43 40 40 42 44 44 47 50 51 51 51 50 48
64 64 65 65 65 68 68 67 67 65 62 65 71 75 76 76 74 75 75 73 70 69 69 69 71 73 78 82 84 86 86 87 89 91 93 95 96 95 91 87 88 88 85 82 79 75 72 70 66 59 52 48 46 45 42 39 41 45 47 48 49 50 50
63 64 68 69 70 72 71 67 65 64 61 60 63 69 75 78 78 78 78 77 75 72 70 68 66 67 71 75 79 81 84 86 87 89 92 94 96 97 94 92 91 90 89 86 84 81 78 76 76 72 65 58 54 49 43 38 37 39 40 44 46 48 49
67 68 69 71 71 72 70 65 62 62 59 55 54 59 65 71 75 77 77 76 74 71 68 66 63 64 66 70 74 78 82 85 86 88 89 90 92 93 94 92 91 91 90 87 86 86 84 82 81 79 75 71 66 59 50 43 42 41 40 41 44 45 46
70 72 71 71 71 71 70 66 63 63 62 57 55 54 55 59 66 70 72 71 68 65 63 62 60 59 60 62 68 75 78 79 82 86 88 89 89 89 90 91 90 91 93 90 89 91 91 87 83 82 83 83 81 74 65 57 51 47 44 43 43 44 46
70 74 74 73 72 72 71 68 65 63 63 60 57 55 54 54 58 62 65 65 62 59 58 57 57 56 55 55 58 64 70 73 77 81 83 86 88 88 90 91 90 90 92 92 92 93 93 90 87 86 88 90 88 83 78 73 65 58 53 49 47 48 49
72 75 74 74 75 74 72 70 66 63 62 59 56 55 55 53 53 56 60 60 59 58 57 56 56 55 54 54 55 57 62 67 70 72 74 76 78 81 86 89 90 91 91 89 90 93 92 91 91 90 89 90 90 87 84 83 78 72 68 63 58 58 58
73 77 78 78 77 75 73 70 66 63 60 57 54 53 51 48 48 52 55 55 56 57 57 56 56 55 54 55 56 58 62 64 64 65 66 66 66 69 75 80 83 88 91 90 90 91 90 89 90 90 89 90 92 91 89 88 84 81 79 77 74 72 70
71 77 80 79 76 73 70 67 64 62 59 55 51 48 46 44 43 45 47 49 50 52 52 52 53 52 53 53 55 57 62 66 66 63 61 61 62 66 71 73 73 75 77 81 85 87 88 89 90 89 88 88 91 93 91 90 88 87 86 85 84 83 81
69 73 74 74 72 71 69 65 61 59 55 51 48 46 44 42 41 40 41 43 44 45 46 47 47 48 47 48 50 52 55 60 63 63 62 62 65 67 68 69 70 68 67 72 78 81 82 83 85 85 83 82 85 89 92 91 90 89 89 88 89 88 86
70 70 70 69 69 69 67 64 59 56 54 51 49 48 47 46 45 44 44 44 43 44 44 44 45 44 42 43 45 46 48 52 56 58 60 63 66 67 67 67 66 64 66 73 78 78 74 73 75 78 80 79 78 82 88 90 88 88 88 87 86 87 88
76 73 71 69 68 66 65 63 60 57 56 55 53 51 50 49 48 47 46 46 47 47 48 47 45 44 41 40 41 43 46 51 54 56 57 59 62 66 67 67 64 62 65 73 77 76 75 75 76 80 83 83 80 81 85 86 84 83 83 80 79 79 80
81 79 77 73 69 68 67 66 64 62 60 57 55 53 52 50 49 48 49 51 50 49 49 49 48 48 45 42 41 40 42 45 48 52 55 57 60 63 63 62 64 64 66 69 70 72 74 77 77 77 78 78 77 77 80 80 78 77 76 77 80 80 79
81 81 81 77 73 72 71 68 65 64 61 58 55 53 52 51 50 48 49 51 50 46 45 46 48 49 48 47 46 43 42 43 44 48 52 51 51 54 56 57 60 62 63 64 66 68 70 71 71 70 67 66 64 64 65 66 67 66 65 68 74 75 73
78 79 80 77 74 73 70 67 64 61 58 55 53 50 49 49 48 46 45 45 44 42 41 41 43 47 51 55 55 52 51 52 51 51 52 49 44 43 46 50 54 56 56 57 60 63 63 64 64 61 58 58 56 53 54 55 54 54 53 54 56 56 55
72 78 82 80 76 74 70 67 64 59 54 51 48 46 44 43 43 43 43 42 40 41 40 38 41 48 53 56 58 57 58 61 58 51 50 53 51 46 43 42 45 48 50 50 51 54 56 57 57 55 53 53 52 50 51 53 51 50 51 51 50 49 47
64 71 79 81 79 76 74 70 67 61 55 52 49 47 46 45 43 43 43 41 40 40 38 37 41 46 47 46 46 47 52 58 59 53 50 51 52 50 48 47 44 42 43 45 46 47 48 48 48 48 48 47 47 46 46 46 46 45 45 45 44 42 41
59 62 69 74 76 75 74 73 69 63 58 55 54 53 52 51 49 49 48 46 43 40 37 36 41 45 42 37 34 34 38 43 47 48 48 48 47 47 50 56 56 50 45 45 45 45 46 45 44 44 42 41 40 40 38 37 38 38 37 37 37 37 37

ECMWFFLT1_prec_cthk_105.txt.gz
RH
72 74 68 59 57 57 54 52 49 46 44 43 44 43 41 42 42 42 43 45 47 43 35 33 37 39 39 39 41 41 44 50 56 57 59 60 60 60 60 60 58 56 56 57 56 55 54 53 51 51 46 40 40 41 40 39 38 37 36 33 35 39 41
70 69 64 60 60 58 54 53 51 48 46 45 45 45 45 43 42 42 42 44 45 45 42 36 36 39 41 41 42 41 40 44 49 52 55 58 60 60 60 60 57 56 56 56 57 57 55 53 51 51 49 44 42 41 39 40 38 38 40 36 32 34 36
67 67 65 63 63 61 55 53 52 51 49 48 45 48 51 47 43 43 43 43 44 46 48 43 38 39 42 42 44 43 41 43 46 48 51 55 59 61 61 60 58 58 57 56 58 58 56 54 51 49 49 47 47 44 40 40 39 39 41 38 34 37 35
67 67 67 67 67 66 60 55 55 54 53 50 46 55 63 55 46 45 44 44 44 44 47 46 42 42 43 42 43 44 43 44 45 46 47 52 57 58 61 62 60 58 57 56 56 56 56 56 54 48 46 47 50 48 44 43 42 41 41 37 36 40 38
69 71 72 70 69 69 64 58 58 56 55 53 51 61 68 58 49 48 47 46 44 44 47 47 43 43 44 43 43 44 45 44 44 45 46 49 52 54 56 60 61 60 58 56 55 55 56 57 56 52 47 45 47 47 44 43 44 44 42 37 37 43 43
70 75 76 75 73 71 67 63 62 59 57 55 55 61 62 56 51 48 47 47 44 44 47 46 44 44 45 45 44 45 46 46 44 44 46 47 48 51 52 53 58 60 59 57 56 56 55 55 55 54 51 47 46 46 45 45 45 46 44 39 39 44 44
70 74 77 78 76 73 70 69 68 68 64 59 59 65 62 56 55 52 48 46 42 40 42 43 44 45 46 46 46 46 46 47 46 44 45 45 46 49 50 50 50 53 57 60 58 57 57 55 54 54 53 50 47 46 47 47 46 48 50 44 39 39 40
69 71 73 75 74 73 74 75 75 77 75 68 66 68 63 57 59 59 54 50 46 41 40 42 44 45 45 46 46 46 45 46 46 44 43 44 45 47 49 48 48 48 52 57 57 57 58 57 56 55 53 51 49 48 48 47 45 49 55 51 42 40 41
71 70 71 72 73 74 77 78 79 81 80 75 72 71 65 60 62 63 59 55 52 48 44 44 45 45 46 46 45 45 45 45 44 44 44 43 44 46 46 47 48 48 49 51 54 56 58 58 57 57 55 53 52 51 51 49 44 45 51 51 46 44 45
72 72 73 72 72 74 77 79 79 80 81 78 77 76 73 68 65 64 64 60 55 52 51 50 48 46 46 47 47 44 43 43 43 44 44 43 42 43 43 43 46 49 49 49 51 54 55 55 57 58 56 54 54 52 50 49 46 44 46 47 46 45 44
73 74 75 74 74 74 77 80 80 80 81 79 78 78 78 75 69 67 70 68 61 56 56 54 52 50 48 48 47 45 43 43 42 42 42 42 42 41 41 41 44 47 49 49 50 52 53 53 55 57 56 53 54 54 50 48 46 44 43 44 44 44 45
75 76 75 74 75 76 77 80 82 80 80 80 78 76 77 76 71 69 73 73 67 63 62 59 55 52 51 50 50 47 45 45 45 43 42 41 41 41 41 41 41 43 46 49 49 49 51 52 52 55 54 53 54 56 52 49 48 45 41 41 42 43 44
77 78 78 76 75 76 76 77 79 80 79 78 77 75 75 77 74 72 72 70 68 67 66 65 61 57 53 52 53 51 46 44 46 46 44 41 40 41 41 40 40 41 43 46 47 47 49 51 52 53 54 53 54 56 54 52 51 50 44 41 41 40 41
76 77 79 78 77 77 76 76 77 79 77 75 75 73 73 76 78 76 74 73 72 70 69 69 68 65 60 56 57 56 51 48 46 46 47 45 42 41 40 40 41 41 41 42 44 45 45 48 51 52 53 53 53 55 55 53 52 54 51 45 41 39 39
74 76 76 77 78 77 76 75 75 76 77 75 74 73 71 71 74 76 76 77 78 78 77 76 74 72 69 65 62 61 60 58 54 51 50 49 48 45 42 41 42 42 42 42 43 45 45 45 47 50 51 53 52 52 54 54 55 60 57 49 48 47 41
72 74 74 74 76 76 76 77 76 75 75 75 75 73 72 72 73 75 76 77 78 79 80 81 80 78 77 76 73 69 67 66 62 58 56 55 55 54 50 46 43 42 43 43 44 45 45 44 44 46 49 51 52 51 52 53 55 60 60 53 54 55 45
74 73 72 71 72 73 75 77 77 75 73 72 71 70 70 73 75 76 77 79 80 80 81 82 83 80 79 82 84 82 78 74 69 64 63 62 62 61 59 56 52 47 44 44 44 44 45 45 44 44 45 47 50 51 52 53 51 56 60 54 50 50 45
73 72 71 70 70 71 73 75 76 75 74 73 71 69 68 69 71 74 77 80 81 82 82 82 83 83 82 82 84 84 85 84 80 76 72 71 70 69 67 64 61 58 54 51 47 45 44 44 43 42 43 45 46 48 53 55 53 52 56 53 49 47 45
73 72 73 72 71 71 72 73 74 74 74 74 73 71 69 67 68 72 75 77 78 78 78 78 80 81 81 82 81 82 83 84 85 85 82 81 81 80 77 74 71 69 67 64 60 57 53 49 46 43 43 42 42 46 50 54 54 53 53 53 52 49 47
73 73 74 73 71 71 72 73 73 73 73 73 74 72 70 68 68 69 70 71 73 74 74 74 75 76 79 81 82 83 83 83 86 89 87 87 88 87 87 85 81 78 75 72 70 69 66 62 57 54 51 44 41 45 48 49 52 56 55 54 54 53 51
71 72 74 74 73 73 74 74 74 73 72 72 74 73 71 70 70 70 68 67 67 68 69 69 71 74 76 79 81 83 84 85 87 87 86 88 90 90 89 89 88 85 81 77 76 76 73 69 65 64 63 56 51 53 53 49 49 53 54 54 55 55 54
71 71 72 72 72 72 72 71 70 70 69 68 69 70 68 68 69 72 72 70 68 67 66 67 69 71 72 75 78 79 80 82 83 83 84 87 90 91 90 89 89 89 87 82 79 80 79 76 74 72 70 66 65 66 65 62 57 52 50 52 53 52 53
71 71 69 68 67 67 68 67 65 64 64 63 62 64 64 62 63 67 71 71 71 70 70 70 71 72 73 74 75 74 75 76 76 77 80 85 88 90 91 91 92 93 92 88 84 83 84 83 82 81 75 71 71 68 66 69 67 57 50 50 49 47 48
68 68 66 64 64 64 65 64 63 62 62 62 62 62 61 59 59 61 65 70 73 75 75 75 74 74 76 76 75 74 74 74 74 74 77 82 86 88 90 91 93 94 93 91 89 89 90 88 85 84 81 80 79 72 66 70 74 68 58 52 49 45 44
64 65 64 64 65 64 64 64 62 61 60 61 60 60 59 60 61 60 61 66 71 75 75 75 75 76 76 76 74 73 72 72 73 74 75 79 83 85 87 89 91 93 94 94 93 93 94 93 90 88 88 88 86 80 72 72 77 76 68 60 55 47 41
62 64 65 66 68 67 64 63 61 60 60 60 59 58 57 60 61 60 58 58 63 68 69 67 67 69 71 72 72 72 71 69 70 72 73 75 77 79 81 83 86 89 91 91 91 91 92 93 93 92 92 92 91 86 79 76 77 78 74 71 68 58 47
61 63 64 67 69 68 66 65 64 62 62 62 62 60 59 59 60 61 60 55 56 63 65 62 60 60 63 66 65 66 66 66 66 68 70 74 76 76 77 77 79 83 86 87 88 89 89 89 91 92 91 91 90 87 84 81 79 80 78 77 77 72 62
65 64 66 68 67 66 66 68 68 65 65 66 65 63 61 59 57 59 60 57 55 58 62 61 59 58 59 60 59 60 61 62 61 62 67 74 78 78 78 75 72 73 76 79 82 86 88 88 88 90 92 92 89 86 86 86 83 83 83 82 82 82 78
65 63 67 70 68 66 67 70 70 68 67 67 67 67 63 57 51 51 53 55 55 56 58 59 59 59 59 58 58 58 59 60 61 61 65 70 74 76 77 75 72 71 71 71 74 82 90 92 91 89 89 91 90 89 89 89 88 86 86 86 86 88 87
70 68 70 73 73 72 71 72 72 69 67 65 64 63 57 50 45 43 42 44 46 46 46 48 55 62 63 61 59 59 58 58 58 60 63 66 68 70 70 69 73 77 76 73 73 78 86 91 92 91 88 85 84 86 87 86 87 88 89 89 91 92 91
75 74 76 75 74 73 71 71 72 71 67 64 61 56 51 46 41 38 36 37 37 37 37 37 42 51 57 60 61 60 59 57 55 55 57 59 61 63 64 65 70 77 81 80 78 78 80 81 82 84 84 78 74 76 79 80 82 84 86 87 89 90 90
72 73 74 72 70 71 68 66 70 72 71 67 63 58 52 48 43 38 36 38 37 36 35 35 35 37 42 47 51 54 56 57 56 55 54 53 54 57 61 64 66 73 81 84 81 80 81 79 76 76 75 73 73 75 78 81 83 84 83 84 84 83 83
74 74 73 69 67 67 65 62 65 70 70 67 65 62 57 53 51 50 50 51 48 42 38 40 42 41 39 40 42 43 44 47 50 53 54 54 54 55 61 64 64 68 74 76 75 77 79 80 80 77 76 78 81 83 83 83 83 80 78 77 78 77 77
80 78 76 73 68 65 64 63 64 67 65 61 60 62 61 57 55 54 54 55 53 47 42 42 45 47 47 47 46 44 44 45 46 50 53 53 49 48 54 60 61 62 65 67 67 68 70 72 74 73 75 80 85 87 85 82 81 79 76 73 72 74 75
79 79 80 80 75 72 72 71 69 68 64 60 58 58 57 56 55 54 53 51 50 49 46 47 50 53 54 55 53 52 53 53 53 54 55 53 47 41 42 47 51 52 54 57 60 62 62 64 65 65 66 71 75 77 76 73 72 72 71 69 68 69 69
73 73 76 79 79 79 79 76 73 70 67 64 62 60 58 58 58 58 58 54 52 51 49 52 59 61 58 58 58 56 57 57 56 55 56 57 56 51 44 41 42 44 45 48 52 55 57 58 59 59 59 59 60 61 60 58 57 57 57 56 55 53 53
70 70 71 73 75 76 75 73 72 71 68 66 64 63 63 63 60 59 60 56 53 51 47 49 57 59 57 57 54 51 54 58 57 56 54 54 57 59 56 50 45 42 43 44 44 46 50 52 53 54 54 53 53 54 54 53 51 49 47 45 42 40 38
72 71 70 68 67 69 69 68 69 71 70 68 65 63 63 63 60 58 57 51 45 43 40 42 49 52 50 48 43 39 45 51 51 50 49 47 48 52 57 59 56 52 50 48 44 43 44 44 45 47 48 48 48 48 49 49 47 45 42 39 37 36 34

ECMWFFLT1_prec_cthk_111.txt.gz
RH
67 70 69 67 71 76 76 74 71 69 64 57 55 56 53 51 51 51 50 44 40 40 38 32 32 36 39 42 44 48 52 52 54 58 58 56 56 57 55 54 53 52 51 48 45 45 44 44 42 38 35 36 36 36 36 36 35 35 37 38 41 46 44
64 66 67 66 68 71 75 76 72 71 68 61 57 55 51 50 52 53 51 47 46 46 39 32 30 32 34 36 40 46 51 53 54 58 59 57 57 58 58 58 56 55 55 53 51 49 48 48 48 46 43 40 38 38 38 38 36 36 36 36 36 40 41
63 64 66 66 66 68 72 76 74 73 73 68 61 55 49 49 51 52 50 47 48 50 46 38 31 29 32 33 36 42 48 52 54 56 58 58 60 62 62 61 59 58 58 56 54 53 52 52 51 50 49 45 41 39 39 39 38 36 36 36 36 34 35
65 65 65 65 67 67 70 74 76 76 76 69 61 55 50 49 51 51 48 45 45 47 49 46 37 29 30 32 34 37 42 46 49 53 56 58 60 62 61 60 59 60 61 58 57 56 56 56 54 52 50 47 44 41 39 40 39 37 37 38 39 35 34
69 67 65 65 68 69 70 74 76 77 77 70 60 56 54 53 52 49 45 44 42 43 45 47 44 37 32 32 33 35 37 39 42 47 51 55 58 58 57 59 59 59 58 58 60 60 56 57 59 57 52 48 45 43 42 41 40 38 37 39 40 38 35
69 68 68 67 67 68 70 74 76 77 79 73 61 57 58 56 52 47 44 43 42 43 43 43 44 41 36 34 33 34 34 36 38 40 44 49 53 54 55 58 59 58 57 57 60 60 57 57 59 59 55 51 47 45 45 45 43 41 40 40 41 39 36
66 67 69 69 67 68 69 72 76 78 78 74 64 60 62 59 54 50 47 46 46 46 44 42 42 42 40 38 37 35 34 35 36 36 39 43 48 51 51 53 56 58 59 59 60 61 59 57 56 56 56 55 51 46 46 49 48 45 44 43 44 43 40
65 67 70 71 71 70 69 70 74 75 77 75 67 63 64 60 59 58 52 50 54 56 53 48 44 43 41 40 43 43 40 37 36 36 38 40 43 46 47 49 53 56 58 59 61 63 61 58 57 57 56 56 55 52 50 51 51 50 47 46 47 47 45
65 67 70 74 76 74 72 71 73 73 74 75 70 66 64 61 62 62 56 55 61 63 63 58 52 48 45 43 46 48 47 46 43 41 40 41 41 43 45 46 49 53 55 55 56 60 60 59 61 61 59 58 59 58 55 53 54 56 52 47 47 51 50
65 67 72 77 79 78 76 72 71 71 72 73 71 70 68 65 62 60 57 58 63 65 67 66 62 58 53 48 48 51 51 50 50 48 46 45 43 42 43 44 45 47 50 51 52 55 56 59 64 65 64 64 62 60 58 55 55 59 57 49 47 50 53
63 67 71 76 76 76 76 73 70 71 72 73 72 73 73 68 63 59 57 59 63 67 69 69 68 64 59 54 50 53 54 51 50 50 50 49 45 43 45 46 45 46 48 50 51 51 50 54 60 64 65 66 64 62 59 57 56 57 56 52 48 49 50
65 67 70 73 73 73 76 74 72 71 72 73 71 74 75 70 64 62 62 61 64 68 69 69 69 68 70 67 56 51 53 52 50 49 48 48 45 44 46 47 47 48 47 47 49 50 50 51 53 57 61 64 64 62 59 57 56 55 54 52 50 50 50
70 73 75 76 73 74 77 78 79 78 78 75 72 74 74 69 65 64 63 63 64 67 69 71 71 69 75 76 63 53 52 53 53 53 49 47 46 45 45 46 47 48 46 45 47 47 49 52 53 53 55 58 62 61 58 56 56 56 55 53 51 52 52
73 77 82 86 81 77 78 79 79 80 82 81 77 76 73 67 66 67 67 68 67 67 70 70 70 70 74 73 64 58 61 60 56 55 52 49 48 48 46 45 46 47 47 48 49 49 48 51 53 53 52 55 59 60 57 55 54 55 57 57 55 55 55
74 74 79 86 87 84 81 79 76 76 78 77 75 77 77 73 71 72 75 76 74 73 73 72 71 72 73 71 65 63 70 69 59 54 52 48 47 47 47 46 46 45 46 49 53 56 54 54 55 54 52 53 57 60 59 56 54 54 56 58 57 56 56
71 70 70 74 79 82 80 78 78 79 78 74 72 75 80 78 75 75 77 81 81 79 77 76 77 76 73 72 67 64 70 70 59 53 53 51 49 49 49 47 44 44 45 46 48 52 55 58 60 59 58 57 56 58 59 59 59 58 59 59 58 57 55
69 69 68 67 70 77 80 80 83 84 83 80 77 77 81 81 79 77 78 81 85 85 82 78 77 78 78 75 72 69 71 70 63 59 57 55 57 60 59 53 46 42 43 44 44 48 53 56 58 60 64 62 56 53 56 60 60 61 62 60 60 60 57
70 72 72 70 70 75 80 83 84 83 80 81 78 76 79 80 78 78 80 82 83 83 81 79 77 78 79 79 78 77 77 76 73 69 65 62 62 65 65 61 55 50 47 46 47 49 50 51 52 55 59 62 61 56 57 61 61 60 62 63 63 64 62
67 71 73 72 72 73 77 80 82 81 79 80 77 75 77 77 75 77 79 81 83 82 78 78 77 76 75 77 78 79 79 80 80 78 75 71 68 67 66 66 65 62 59 58 58 58 55 53 54 56 58 64 69 63 55 58 62 62 61 63 65 66 66
69 72 76 78 78 77 78 78 79 79 80 80 78 76 76 77 77 78 76 77 80 82 81 81 80 78 75 74 74 74 76 81 83 83 81 76 72 70 70 70 70 69 69 69 68 67 66 63 63 63 64 68 72 65 53 50 55 58 57 57 60 63 66
74 77 80 83 83 82 81 78 75 75 77 79 78 77 77 77 77 77 77 76 75 76 79 81 80 79 77 74 74 73 74 77 79 82 83 81 77 75 74 74 73 73 75 76 75 74 74 71 69 69 70 70 70 67 61 59 60 60 57 53 54 58 62
76 78 78 81 84 83 80 77 74 72 74 77 79 78 77 77 75 73 74 76 74 73 75 79 78 75 73 72 73 74 75 77 79 82 84 85 84 81 78 76 75 75 76 77 79 80 79 78 75 72 72 73 72 70 70 70 69 68 65 61 60 64 66
77 80 79 79 80 80 80 77 75 74 76 79 80 78 74 72 71 69 69 71 70 71 74 76 75 72 70 68 68 70 74 77 79 82 84 85 85 82 78 76 76 77 78 79 81 83 84 84 83 79 77 76 76 74 73 72 70 70 71 72 70 71 70
78 82 82 80 79 82 84 82 79 80 82 82 81 78 73 69 68 68 68 68 68 71 74 73 70 68 68 67 67 67 69 71 71 73 76 78 79 79 79 79 78 78 79 81 84 86 87 88 89 88 86 84 82 80 79 77 75 73 75 78 76 74 73
80 81 82 82 81 82 83 82 81 82 85 85 83 80 76 74 73 73 72 72 71 71 71 70 69 69 67 68 68 68 67 66 66 67 68 69 70 72 75 77 77 78 80 82 83 84 86 89 91 91 91 90 87 86 86 86 84 81 80 81 81 79 77
79 77 77 78 77 76 76 78 78 78 80 81 81 80 78 77 76 75 74 73 74 72 69 69 70 70 69 68 68 67 67 66 65 66 67 69 70 70 70 71 73 76 79 81 82 82 82 84 87 88 89 90 89 88 89 90 90 87 83 81 82 82 80
72 71 72 74 75 73 73 73 74 75 76 76 75 74 74 74 74 73 70 67 67 67 66 66 65 64 65 65 64 64 65 64 64 65 67 69 69 69 68 68 70 71 73 75 78 79 79 81 83 85 87 89 89 90 90 92 93 91 87 84 82 82 81
69 68 69 72 73 72 71 71 72 73 74 74 73 73 73 73 75 78 76 71 67 63 60 58 56 54 54 56 56 56 59 63 64 65 67 69 68 67 66 65 65 67 68 69 72 74 76 80 82 83 85 88 88 88 87 88 92 94 92 90 87 85 84
67 66 65 67 69 70 70 71 72 74 77 77 76 76 76 74 75 78 78 77 74 69 64 59 54 51 51 52 52 51 53 55 57 59 63 68 69 68 68 66 64 64 66 69 72 73 74 77 78 78 80 83 83 84 83 84 87 89 89 92 94 93 89
65 65 66 66 67 68 69 69 69 71 75 75 74 75 74 71 71 72 71 70 70 69 68 66 62 59 58 57 57 56 53 51 51 52 56 62 67 69 68 68 68 67 67 70 73 75 76 76 76 76 78 78 77 79 81 81 82 83 85 91 95 96 93
66 67 67 66 64 63 62 61 60 60 61 61 61 63 65 64 63 62 60 59 58 57 57 59 60 62 63 62 61 60 58 56 56 57 57 58 62 66 67 68 69 70 70 71 72 74 75 74 74 75 76 76 75 74 74 75 77 82 87 92 93 92 90
68 68 68 66 64 62 60 59 59 57 55 53 53 54 56 56 55 52 50 49 48 47 46 48 53 58 62 63 62 61 60 60 59 60 59 57 56 57 60 64 67 68 70 70 71 73 75 75 76 76 76 76 76 73 72 71 72 76 82 87 89 88 88
66 65 65 65 64 65 65 65 64 61 57 56 56 54 53 51 50 48 46 44 43 42 42 45 50 54 57 60 63 62 62 62 60 59 60 58 53 50 50 56 62 65 66 67 69 72 74 76 76 75 75 75 75 74 73 74 74 74 75 79 80 80 80
67 66 64 64 64 65 67 67 65 62 59 58 58 56 53 50 48 45 43 42 41 41 44 48 54 58 60 62 63 62 61 62 60 58 57 56 54 48 43 45 52 57 58 60 63 65 68 71 72 71 70 70 70 71 73 75 76 76 77 77 77 76 76
70 69 67 67 66 65 66 66 65 62 60 58 55 54 54 53 51 50 48 47 46 46 51 56 60 64 66 65 64 65 64 64 62 58 53 51 50 45 38 36 41 45 47 51 56 58 60 62 63 62 62 61 60 62 66 69 70 72 73 75 75 75 75
67 66 66 66 67 66 65 65 64 63 62 61 58 57 56 56 55 55 56 56 56 55 56 58 59 62 65 66 66 67 67 66 65 62 57 53 50 45 39 36 37 38 39 43 48 52 54 56 58 57 57 58 58 57 56 55 57 60 64 66 68 68 66
61 62 62 62 63 64 65 66 65 62 61 62 62 62 62 61 60 59 58 58 58 57 56 58 58 59 60 62 64 66 65 63 62 60 57 54 50 47 46 47 46 44 41 39 40 42 43 46 49 50 51 54 55 53 49 46 45 46 50 53 55 53 51
53 54 56 56 57 58 59 61 61 60 60 60 61 63 65 66 65 64 62 60 58 57 56 57 59 59 59 59 59 61 63 62 58 55 53 51 48 45 46 50 52 50 47 44 43 42 42 41 41 41 42 43 44 44 43 41 40 39 40 41 41 40 39

ECMWFFLT1_prec_cthk_114.txt.gz
RH
73 76 79 78 74 71 71 70 67 64 57 53 52 50 49 50 51 49 47 45 43 41 40 40 39 40 44 46 47 48 50 52 54 56 58 57 56 58 57 54 50 50 49 44 41 40 38 36 33 32 33 33 33 34 34 34 37 39 40 43 43 43 41
71 74 76 77 73 69 71 72 71 70 64 58 54 50 50 53 53 51 49 47 45 43 43 41 38 37 40 44 46 47 49 52 54 56 59 58 57 59 58 56 52 51 50 47 44 43 41 40 38 35 34 33 33 33 33 34 34 33 35 38 40 43 42
69 70 71 74 72 69 70 73 74 74 69 64 58 53 52 55 55 53 51 50 47 45 43 41 37 34 37 40 42 45 49 52 54 57 60 59 58 59 58 57 55 54 52 51 50 47 45 44 43 41 39 38 36 35 34 34 34 33 33 33 32 35 38
67 67 68 69 70 69 68 69 72 74 71 68 64 57 54 54 55 54 52 51 50 47 45 43 37 33 33 35 36 39 45 51 54 56 58 59 60 61 60 59 59 57 55 54 53 50 49 49 48 47 45 43 41 38 36 36 35 34 33 33 32 32 33
66 67 68 67 67 68 67 68 70 71 71 70 66 61 56 53 54 54 53 52 51 49 47 47 42 35 32 33 33 35 40 47 52 53 56 59 60 61 61 61 60 58 57 56 55 52 53 53 53 53 49 46 44 41 39 37 36 36 34 34 35 34 32
65 67 68 67 66 67 67 67 68 69 70 71 67 64 60 56 55 54 52 52 51 49 48 48 45 39 34 33 33 34 36 40 46 49 52 56 57 58 60 60 59 58 58 58 57 56 56 56 56 58 55 49 45 42 41 39 37 37 36 35 36 37 34
63 64 66 68 67 68 68 68 69 70 71 72 71 70 67 61 57 56 53 50 48 46 45 45 44 41 37 34 34 33 33 35 39 42 45 50 52 54 57 58 57 57 59 59 58 58 59 57 56 58 58 54 50 45 42 42 42 41 39 38 39 39 37
63 64 65 68 67 66 66 67 70 72 71 73 74 74 73 67 62 59 55 50 47 44 42 42 43 42 38 36 34 33 32 33 34 36 40 44 47 48 51 54 55 56 59 59 59 59 60 59 57 56 56 55 54 50 45 43 46 46 44 42 42 42 41
65 66 66 67 67 66 66 67 70 72 73 75 76 75 76 73 66 62 58 51 47 44 42 42 43 42 41 38 36 35 35 34 34 35 37 39 41 44 46 49 52 54 55 57 60 61 62 62 60 57 55 55 55 53 49 46 47 49 48 46 46 45 46
67 68 68 68 68 67 68 71 73 74 74 77 78 77 78 76 69 64 60 55 50 47 46 45 46 46 44 40 37 36 37 37 36 36 37 38 40 41 44 45 47 49 51 53 57 59 60 61 61 59 58 57 56 55 54 52 51 52 53 52 49 46 48
68 69 71 74 74 72 72 75 75 74 75 79 79 78 79 77 70 65 62 59 56 53 51 53 57 56 51 45 41 39 39 41 43 42 39 39 40 41 43 44 44 47 48 50 53 55 55 57 59 60 61 61 60 59 58 56 53 53 55 56 52 47 47
67 69 72 76 79 81 82 83 80 74 73 76 77 78 79 76 69 66 65 63 61 59 56 60 66 67 63 56 51 48 46 46 51 54 50 46 44 44 44 44 44 46 46 47 49 50 51 51 54 57 60 62 63 63 61 59 57 55 56 57 55 51 49
67 69 71 73 76 79 82 84 82 76 73 75 77 79 80 76 70 68 67 65 63 61 60 63 69 72 73 69 64 60 54 52 59 66 62 54 49 48 48 47 47 46 46 46 47 48 49 49 50 52 54 56 59 62 62 61 59 57 56 55 54 53 51
70 70 71 74 76 76 78 80 81 80 80 82 84 84 83 81 77 76 75 72 67 64 62 64 70 76 78 77 75 69 62 61 67 70 63 55 51 49 48 49 48 47 47 47 46 47 48 48 49 51 52 51 53 57 59 60 59 57 55 55 54 53 52
71 70 72 75 77 79 82 84 85 87 86 88 91 91 88 86 84 83 83 82 78 74 70 67 70 76 80 80 79 76 71 72 72 69 62 57 54 53 51 50 49 48 48 47 47 48 49 49 49 50 51 50 50 52 55 57 58 57 56 56 56 55 54
71 71 73 74 77 80 83 86 88 89 88 89 90 90 90 89 86 83 84 84 82 81 79 74 73 76 80 82 82 80 79 79 73 69 67 63 59 57 54 52 49 48 47 46 46 48 48 50 51 52 52 52 53 53 53 54 56 58 57 57 55 55 55
72 73 75 75 75 77 80 83 86 87 87 87 87 87 90 90 87 85 84 83 79 78 80 80 77 75 77 81 82 81 81 79 72 69 72 69 62 56 53 51 49 47 46 44 43 44 44 45 48 51 53 55 56 57 56 55 57 57 58 58 57 57 57
71 73 76 76 76 77 77 78 81 83 85 86 86 86 85 85 86 86 85 83 81 80 83 85 82 78 77 81 84 83 82 79 72 70 72 70 63 57 53 53 51 50 49 47 43 42 41 42 44 47 50 53 56 58 59 59 58 57 57 58 59 60 60
68 72 73 72 73 76 77 77 79 81 83 85 88 87 84 83 84 85 84 80 79 81 84 86 85 81 79 79 81 82 83 81 77 74 74 71 66 60 57 57 58 57 58 58 53 47 44 43 43 44 47 50 53 56 59 62 62 59 57 58 59 59 59
68 72 74 73 73 74 75 77 80 82 83 85 88 89 89 86 83 83 84 82 81 82 84 84 86 86 83 80 79 80 83 83 81 81 81 78 74 70 66 63 63 63 65 67 64 58 54 52 50 51 52 52 51 52 56 59 61 61 59 59 59 58 59
67 70 74 77 77 76 75 79 82 83 82 82 83 86 90 90 87 84 85 86 86 85 86 87 88 89 88 85 81 81 84 86 84 84 84 83 81 79 76 73 70 68 67 68 67 66 63 62 62 64 64 62 59 57 57 59 63 66 66 60 54 53 55
71 70 73 78 82 81 80 81 83 82 82 82 82 83 87 89 89 87 87 91 93 92 92 91 88 88 89 86 82 81 83 85 84 82 81 83 83 83 81 79 78 74 70 68 68 69 68 68 70 72 73 73 73 71 69 68 69 71 71 64 56 53 54
77 75 74 77 81 85 86 86 83 80 80 80 81 84 86 87 86 87 90 92 92 92 92 90 88 87 87 83 80 80 81 83 83 80 79 81 82 84 85 87 86 82 76 73 74 74 73 72 72 74 75 76 78 80 79 77 75 74 74 71 66 64 65
80 78 74 75 82 88 90 88 85 82 82 79 77 82 87 88 86 86 87 86 84 85 86 87 86 85 82 79 77 76 77 78 80 82 81 80 80 81 85 87 89 87 85 82 79 77 75 73 74 77 79 79 81 84 86 85 82 78 77 76 73 70 71
79 77 76 79 84 85 84 84 85 86 86 82 79 82 87 90 90 87 85 83 83 83 82 82 82 81 79 77 75 73 71 72 78 83 83 79 78 79 81 83 86 86 85 82 78 76 76 75 78 83 84 82 81 86 90 91 88 83 80 78 76 74 73
76 75 75 80 82 82 83 85 86 87 86 83 84 85 86 87 88 87 85 85 83 78 77 78 79 78 77 77 76 75 74 75 80 84 81 75 73 74 75 77 80 81 81 81 79 79 80 80 83 87 87 84 82 85 89 92 92 90 86 84 83 83 82
73 72 73 79 83 83 85 87 85 84 85 85 86 86 84 83 83 83 84 84 81 76 75 77 77 76 74 74 75 75 76 78 80 79 76 72 70 68 68 69 71 73 74 76 77 79 80 81 82 84 85 83 82 83 86 89 91 91 91 90 89 90 90
72 72 74 79 83 82 83 84 83 84 86 86 85 84 84 83 80 79 80 81 79 76 74 71 70 69 67 68 71 73 73 74 74 73 71 68 67 66 67 68 69 69 70 71 72 73 75 76 76 78 80 80 81 83 86 88 89 91 91 91 92 92 92
67 73 77 78 80 80 78 79 80 83 85 85 83 84 83 79 73 73 76 76 75 72 69 66 63 61 60 61 66 68 69 70 72 72 70 68 66 65 66 66 68 69 69 69 69 69 70 70 70 72 74 75 77 80 84 87 88 90 90 90 90 91 91
62 70 74 74 75 75 73 73 76 79 81 81 81 81 79 73 69 69 71 72 71 69 70 72 70 66 62 61 62 63 64 66 67 67 68 67 66 64 64 64 65 66 67 68 68 68 69 69 69 71 72 72 73 74 76 79 80 80 81 83 86 87 88
61 65 68 69 70 70 68 67 69 70 72 74 75 74 73 70 68 67 67 69 69 68 69 72 74 72 70 68 66 64 62 60 60 60 61 63 63 64 64 64 63 63 64 65 66 68 68 67 67 70 71 71 70 71 73 74 73 71 73 77 81 83 85
61 62 62 62 63 63 61 60 60 61 61 62 61 59 60 62 64 64 64 67 69 70 71 71 70 70 71 71 69 66 61 58 57 55 55 56 58 61 63 62 61 60 61 62 63 65 66 66 66 67 69 70 70 71 72 74 73 72 73 76 79 80 82
61 62 62 61 58 56 56 58 59 59 57 56 53 50 49 50 51 54 57 59 61 63 67 70 69 68 67 66 65 63 60 57 55 53 51 51 53 56 60 62 61 57 57 58 59 59 61 62 64 66 67 69 71 72 73 75 75 74 74 75 76 76 76
63 64 66 66 62 58 56 58 59 59 59 58 56 53 50 46 45 45 48 51 55 57 59 63 65 66 66 64 63 61 59 57 56 54 53 52 53 54 56 61 64 61 56 54 54 55 56 58 61 64 65 67 71 73 73 74 75 74 72 72 72 73 73
64 64 66 67 67 65 63 60 58 58 58 58 56 56 54 53 50 47 45 45 48 52 54 57 59 61 61 61 60 58 57 55 55 53 53 54 57 56 53 57 64 64 60 56 54 53 53 54 56 58 61 63 66 68 68 69 70 70 69 68 69 70 71
59 61 63 64 65 66 67 65 61 59 58 57 56 56 57 56 56 54 52 48 46 47 49 50 51 53 52 53 54 54 53 51 51 52 54 55 55 53 50 53 58 59 59 59 59 56 54 53 53 53 55 57 59 61 61 61 61 62 63 63 64 65 64
54 56 59 61 61 62 63 63 63 62 61 59 58 57 58 59 59 59 59 56 53 52 52 52 53 54 53 52 52 53 52 51 51 51 53 54 52 49 48 50 52 52 53 56 58 57 54 51 50 50 49 49 50 50 51 50 50 50 51 51 51 51 49
46 47 49 51 54 56 57 57 58 59 59 59 59 59 59 60 61 62 63 62 59 58 57 55 57 61 61 61 61 60 58 56 54 52 51 51 50 49 49 48 49 50 51 52 53 53 49 45 44 43 42 40 39 37 36 37 37 38 38 38 37 35 34

ECMWFFLT1_prec_cthk_117.txt.gz
RH
74 76 72 66 62 60 60 59 56 53 50 46 46 47 46 44 43 42 40 40 41 39 37 37 40 43 45 47 48 48 50 53 55 56 54 52 52 50 50 50 49 49 47 44 43 40 38 38 36 35 35 36 38 38 37 38 40 42 43 42 41 40 40
73 77 77 72 65 61 62 63 61 58 54 49 46 47 47 45 44 42 41 40 40 39 37 36 37 41 45 47 48 48 50 52 54 57 58 56 55 53 53 53 51 50 50 47 45 43 40 39 37 35 34 36 37 37 36 36 38 42 43 42 43 43 43
68 74 78 77 70 64 65 67 67 65 60 54 49 48 47 45 45 44 42 42 41 39 38 37 35 38 44 47 47 48 50 51 53 56 58 59 58 56 57 57 54 52 51 49 47 45 43 42 41 37 35 35 36 35 36 36 36 38 38 38 41 43 44
64 68 74 78 74 69 69 69 69 69 67 61 55 51 49 46 45 46 45 44 43 41 39 38 36 35 39 43 45 47 48 49 51 53 57 59 57 57 58 59 57 54 53 51 50 49 47 46 45 43 39 37 38 37 36 37 36 35 35 34 36 37 37
63 64 68 72 72 70 70 70 70 70 71 68 62 57 54 50 47 48 48 47 45 44 42 41 40 36 35 37 41 44 47 48 49 52 56 59 58 57 59 60 59 58 55 54 54 53 50 48 48 48 46 42 42 41 39 39 38 36 34 34 34 34 33
62 63 65 67 68 67 67 70 71 71 72 72 68 63 60 56 52 51 52 51 48 47 45 44 42 37 33 34 37 40 41 44 49 52 55 58 58 59 60 62 62 60 57 56 56 54 52 51 51 51 51 49 47 45 43 42 41 39 35 34 34 35 34
62 63 64 65 67 67 66 68 71 72 72 74 74 70 66 61 57 54 52 51 50 49 47 46 44 41 35 32 35 36 36 39 46 50 53 56 59 59 60 62 63 61 58 58 58 56 54 54 53 54 56 55 53 50 46 44 44 41 38 35 35 36 36
62 63 63 65 68 69 67 67 70 71 72 74 77 75 70 65 60 57 53 51 50 49 48 48 47 46 41 35 34 35 34 36 42 47 49 52 55 57 58 59 60 59 58 58 59 59 56 56 57 58 58 59 58 54 50 47 45 44 42 39 38 37 37
62 63 63 65 69 72 73 72 72 73 72 73 76 77 74 70 65 61 57 53 50 49 48 49 49 48 46 40 36 35 36 36 38 42 45 47 49 52 52 54 55 57 57 58 58 59 58 58 59 58 58 58 58 56 53 50 47 45 45 44 42 41 40
64 64 65 67 68 71 76 77 76 75 75 73 73 76 76 74 72 70 63 56 52 50 48 49 49 47 45 43 40 37 37 37 36 38 40 41 44 47 48 49 51 54 56 57 57 57 58 59 59 59 58 57 56 55 54 53 49 47 47 46 45 44 43
65 66 68 69 70 70 73 75 74 74 76 75 75 77 78 78 78 78 73 63 57 53 50 48 47 45 43 42 41 39 38 37 35 35 35 37 40 42 43 46 47 49 52 55 55 55 57 61 61 61 60 58 57 56 55 53 52 50 50 49 47 47 47
65 69 72 74 74 74 74 75 74 74 76 80 81 82 83 85 85 84 80 72 66 62 59 53 47 45 44 42 41 41 40 38 37 35 34 35 37 38 39 41 43 45 47 50 51 52 55 58 60 60 59 58 58 57 56 56 56 55 54 51 49 50 50
67 70 74 74 74 74 74 75 75 76 76 78 80 81 81 85 88 88 85 81 76 72 72 70 60 51 48 47 45 43 41 40 39 39 38 37 38 39 38 39 40 42 44 45 47 49 51 54 55 56 56 56 57 59 60 60 60 60 58 55 52 51 51
72 73 74 73 72 72 73 74 74 75 75 75 77 78 79 81 84 87 86 85 82 77 76 77 71 60 55 53 53 53 49 44 42 42 42 42 42 42 41 40 40 41 42 43 44 46 48 51 51 51 52 53 54 57 59 60 62 62 61 59 56 54 52
72 74 75 76 75 73 73 74 75 77 78 77 78 79 79 80 82 84 84 84 84 80 75 74 73 68 63 59 61 63 60 54 49 46 47 49 51 50 47 45 44 43 43 43 43 45 46 48 49 49 50 51 52 54 55 56 58 60 61 60 58 55 53
70 71 72 75 77 74 73 75 79 82 81 80 81 81 80 81 81 82 85 85 83 81 78 76 75 74 71 68 68 69 67 64 60 57 56 57 60 62 59 53 50 48 46 46 46 47 46 46 47 48 49 51 52 53 53 53 54 57 58 58 57 56 55
71 70 70 73 75 74 74 77 81 82 82 82 84 85 84 84 83 82 86 86 83 82 80 77 76 75 75 73 72 74 75 73 72 70 67 66 68 69 65 58 55 52 50 50 50 50 49 47 47 48 50 52 53 53 53 53 53 54 56 55 55 56 56
69 68 69 72 74 74 75 80 81 81 83 84 84 86 88 88 86 85 87 88 86 84 81 78 77 78 78 76 74 76 79 79 78 76 73 75 79 78 70 61 59 58 56 54 53 51 50 49 49 50 52 53 54 54 54 54 55 54 55 55 55 56 57
67 68 68 71 74 75 77 81 82 81 83 84 84 87 90 90 87 86 89 91 89 85 81 81 83 83 81 79 78 79 82 83 82 79 78 80 84 85 80 73 68 66 59 54 54 54 52 51 49 48 49 51 52 53 55 56 57 57 56 56 56 57 58
66 69 69 70 73 76 78 80 80 82 85 86 86 89 93 92 91 91 93 91 87 82 80 83 87 86 84 83 82 81 83 85 85 84 83 83 83 86 86 81 76 73 63 53 53 54 54 53 53 51 49 48 48 49 51 52 54 56 58 59 59 59 59
66 70 71 72 74 75 75 77 79 81 84 87 88 92 95 95 94 95 94 90 87 85 84 86 89 88 88 89 86 83 84 84 83 83 84 83 82 83 83 79 77 76 70 62 58 60 61 61 61 59 56 52 50 48 48 48 50 53 55 58 60 61 61
66 70 71 72 75 74 73 75 79 80 82 85 86 88 92 94 93 93 92 92 92 91 89 89 89 88 88 89 87 85 86 87 86 85 84 82 81 81 80 80 80 79 77 73 71 72 75 75 73 68 64 61 58 55 55 54 55 55 54 55 56 58 60
68 72 73 73 73 74 74 75 77 79 82 85 86 88 90 90 91 92 92 92 93 91 91 91 90 88 88 88 87 87 89 90 90 88 86 83 80 80 80 81 81 79 80 81 81 82 84 85 83 78 72 68 64 62 63 64 65 66 65 64 63 62 62
71 74 76 76 76 76 76 75 75 77 80 82 86 92 94 92 91 91 92 92 91 91 91 89 88 88 88 87 87 87 89 90 91 90 88 84 81 81 81 82 82 82 82 84 86 86 87 87 85 80 76 73 70 69 70 71 73 75 77 78 77 75 73
75 76 77 79 80 79 78 78 78 80 82 84 87 91 94 94 92 92 92 93 92 90 89 88 89 89 86 85 85 85 86 87 88 88 87 83 81 80 80 81 82 84 85 87 90 91 91 90 86 81 78 78 77 75 74 74 75 78 81 83 84 85 84
72 74 76 79 81 79 78 79 81 82 84 86 88 89 90 91 90 90 91 92 93 93 90 90 92 90 86 85 84 83 85 86 85 85 84 83 82 80 80 80 80 81 83 87 91 93 92 89 85 81 79 81 81 80 79 79 81 82 85 86 86 87 89
70 71 74 79 81 79 77 77 78 81 84 86 87 88 88 88 88 91 92 90 91 91 88 88 90 88 83 82 81 81 81 81 82 82 81 79 78 76 75 75 75 77 82 87 91 93 90 87 84 81 80 81 82 81 81 83 85 85 85 86 87 88 89
68 71 73 76 79 79 79 78 75 76 79 81 81 84 86 88 89 91 92 90 89 87 84 84 88 87 85 83 82 81 81 81 82 83 79 77 77 76 75 75 74 75 79 81 85 89 89 86 82 80 81 81 81 80 80 82 85 85 84 86 88 88 88
68 71 71 73 77 80 81 81 77 74 75 77 79 81 85 89 90 89 89 87 85 82 80 80 83 86 88 86 82 82 84 85 85 83 80 81 82 80 78 76 74 72 73 74 76 79 81 81 78 77 77 77 78 80 81 81 82 83 84 87 90 90 89
68 69 69 70 75 79 82 83 82 80 79 80 79 79 79 81 81 79 78 79 80 81 81 80 81 82 83 81 78 80 84 84 81 79 76 76 76 74 72 70 68 67 69 72 74 74 75 75 75 73 72 71 71 74 75 75 75 77 78 81 84 85 85
63 63 63 65 70 74 77 80 82 82 83 83 82 80 78 75 72 69 72 75 78 80 81 81 80 79 77 75 75 78 80 77 74 74 72 70 69 67 66 64 63 64 67 69 70 71 72 72 72 70 68 67 67 68 67 67 69 69 70 72 74 75 77
63 60 60 62 63 64 65 67 71 74 75 76 77 76 75 75 72 71 74 77 78 80 82 83 82 80 78 76 74 75 74 71 68 67 66 65 64 63 62 60 59 61 64 66 67 68 68 68 68 68 66 65 65 65 65 66 68 68 68 69 71 72 73
65 62 59 57 55 53 52 53 56 59 60 62 62 60 60 63 63 65 68 70 71 73 74 75 75 75 74 73 71 70 69 66 63 61 59 56 56 55 55 56 56 56 56 58 60 62 64 64 64 65 66 66 65 65 65 66 68 69 69 69 70 70 70
66 64 61 57 56 55 54 52 52 53 54 56 55 53 52 52 53 54 57 59 60 60 62 66 69 68 68 67 66 66 65 64 62 60 57 54 50 48 47 47 50 52 51 49 50 53 56 58 58 58 61 63 64 64 64 64 65 66 66 67 67 67 67
67 69 68 67 66 65 62 60 57 57 57 57 57 55 54 53 52 53 54 55 55 54 56 61 66 67 67 67 65 64 64 63 61 59 57 55 52 50 47 45 48 51 50 48 47 49 50 51 51 50 51 53 55 57 58 59 60 61 62 64 65 66 66
64 67 69 70 71 71 69 66 64 61 59 59 58 58 57 55 55 54 54 55 56 55 54 55 58 61 63 64 64 63 62 61 60 58 56 54 52 49 48 48 51 54 53 51 52 53 52 52 51 50 47 46 47 47 49 50 50 51 53 55 58 60 62
59 59 59 61 63 65 66 66 65 64 62 60 59 59 58 58 58 57 55 55 56 58 60 59 58 57 56 57 59 61 61 60 60 58 55 51 49 47 46 47 51 54 54 54 56 57 58 57 56 53 49 46 45 44 42 41 40 40 40 42 45 47 48
49 49 49 49 50 52 55 57 58 60 60 59 59 60 60 60 61 61 59 58 56 57 59 61 61 61 61 59 59 59 60 60 59 58 55 51 48 45 42 41 43 44 44 45 47 48 49 50 50 50 49 48 48 48 46 44 42 39 37 35 35 35 36

ECMWFFLT1_prec_cthk_123.txt.gz
RH
74 71 67 60 56 54 52 49 48 46 44 42 40 40 42 42 42 43 44 44 43 41 39 37 37 39 41 43 43 44 45 46 45 42 41 43 44 42 41 42 42 41 40 37 35 35 35 35 35 35 35 37 38 39 40 41 42 45 48 47 45 44 43
78 75 68 61 57 57 55 52 49 48 47 45 42 40 40 41 41 41 43 44 44 43 42 40 39 39 41 44 46 47 47 49 48 46 45 45 46 46 45 45 45 44 43 40 37 37 37 35 35 35 35 36 37 38 40 41 42 43 44 44 43 42 43
79 79 72 62 57 57 57 55 51 51 50 48 45 41 39 40 40 41 42 43 44 45 43 42 41 41 41 43 45 45 46 48 48 48 48 48 48 48 48 48 49 49 47 45 42 41 40 39 37 36 36 36 37 38 38 39 39 39 41 43 44 43 43
79 80 73 64 58 58 59 58 54 53 53 51 48 44 40 40 41 42 42 42 44 45 45 44 43 43 42 43 44 44 45 46 47 49 51 51 50 50 50 50 51 52 52 50 48 45 44 43 41 40 39 37 37 37 37 38 38 37 38 41 43 43 43
81 78 72 64 61 59 59 59 57 55 54 53 51 48 44 42 42 43 43 42 43 44 46 46 45 44 43 42 44 44 44 44 45 49 52 54 54 54 53 52 53 54 53 53 52 49 48 47 45 44 42 40 38 36 36 36 36 37 37 38 39 40 39
80 76 71 68 66 64 61 60 59 57 55 54 53 51 48 46 45 46 46 44 43 43 45 46 46 45 42 42 43 43 43 43 43 46 51 54 56 57 57 56 56 57 56 55 54 52 51 51 49 47 45 44 42 40 38 36 36 36 37 37 37 37 36
77 74 71 71 71 70 66 62 61 61 59 58 57 54 52 49 47 48 50 48 44 43 43 45 46 45 43 42 41 41 42 43 43 45 49 52 55 57 59 59 59 59 59 58 57 55 54 53 52 50 48 47 47 46 43 40 38 37 38 38 38 38 37
76 75 73 72 73 73 70 64 63 64 65 64 62 58 55 52 49 49 50 50 47 44 43 44 45 45 45 43 41 39 40 42 43 46 49 51 53 56 58 59 60 60 61 61 60 58 56 55 54 52 50 49 49 50 49 46 44 43 42 42 42 41 40
74 75 75 74 73 74 72 68 67 68 68 68 67 65 62 58 54 51 50 51 50 46 45 45 46 46 46 44 41 39 38 39 42 45 48 50 52 54 57 59 60 60 61 62 62 61 59 56 55 54 52 50 49 50 52 52 51 50 48 48 47 46 44
72 74 75 75 75 76 75 73 72 72 72 72 71 71 69 65 62 58 56 55 53 51 50 50 49 47 46 44 42 39 38 37 39 43 47 49 50 52 55 57 60 62 62 62 63 62 61 58 57 57 56 53 51 51 52 54 55 55 54 52 51 48 46
73 75 76 77 78 79 79 78 76 74 74 74 75 76 76 75 73 70 66 63 61 58 55 53 51 49 47 46 43 42 41 39 38 39 43 46 48 50 53 55 58 61 62 62 63 64 63 61 60 59 59 57 55 54 55 57 58 58 57 56 53 51 48
74 76 78 79 80 79 80 80 79 76 73 73 74 76 78 79 79 78 77 75 71 67 63 59 56 53 51 49 46 45 46 45 42 38 38 41 43 45 48 52 55 58 60 61 62 63 63 63 62 61 61 60 59 59 59 59 60 60 59 58 56 53 50
76 76 78 80 81 80 79 78 78 77 75 74 73 73 74 76 77 79 82 83 81 78 76 72 66 61 57 53 51 49 47 47 46 42 38 37 37 39 42 46 50 54 57 58 59 60 61 61 61 61 61 60 60 61 62 61 60 60 59 59 57 56 52
75 76 76 77 80 81 81 79 78 77 76 76 74 72 72 74 76 77 80 83 84 82 81 80 77 72 65 59 54 52 49 48 48 46 42 38 36 35 36 39 43 48 52 54 54 56 58 58 58 59 60 60 59 60 61 62 62 60 59 58 58 57 55
75 75 74 75 76 77 79 79 79 78 77 77 75 74 73 73 75 76 76 79 81 82 82 82 81 80 76 70 62 55 51 50 50 48 45 41 39 37 36 37 39 42 45 47 48 50 52 54 54 55 56 58 58 58 59 61 62 61 60 59 59 61 63
75 74 74 74 73 73 74 75 77 78 79 78 77 75 74 74 75 75 75 75 77 81 83 83 82 82 82 82 77 66 58 54 53 52 48 44 42 40 39 38 40 41 42 43 44 46 47 48 50 50 51 53 54 56 57 58 59 60 60 60 61 65 69
77 75 73 72 71 71 72 73 74 77 79 79 78 77 76 75 75 75 75 75 75 77 82 85 85 83 83 86 85 80 72 64 59 57 52 47 44 42 40 39 40 41 43 43 42 43 43 44 46 47 48 49 50 52 55 55 56 59 60 58 58 63 67
76 73 70 69 68 67 67 68 69 71 73 75 76 77 77 77 77 77 77 77 77 77 81 85 87 86 85 84 84 85 83 77 71 66 58 50 45 43 41 40 39 40 41 42 41 41 42 42 43 46 47 47 47 49 51 52 53 57 60 59 57 58 60
73 69 67 65 64 62 61 61 63 65 67 69 71 73 74 75 77 78 78 78 79 79 81 83 86 89 90 89 87 86 86 82 78 76 70 61 53 49 46 43 42 42 42 42 42 41 42 43 44 46 47 47 47 46 48 48 49 52 55 58 57 55 55
70 68 66 63 61 60 58 58 59 61 63 64 66 68 71 73 75 77 78 79 79 81 82 82 84 87 90 93 92 90 89 86 81 80 80 75 68 63 57 52 49 48 47 46 46 45 45 45 47 50 50 48 47 47 46 46 47 48 50 51 51 51 53
69 67 65 63 61 59 58 57 57 60 62 63 63 64 66 68 69 72 75 76 77 79 82 83 84 85 87 90 91 93 94 91 86 86 87 84 81 78 73 68 63 61 60 56 52 49 49 51 53 56 56 53 51 50 48 46 47 49 50 49 49 50 51
68 65 63 63 62 59 58 57 57 58 60 62 63 64 64 65 66 67 70 73 75 78 80 83 85 86 87 88 89 92 94 91 90 91 91 89 87 85 82 79 76 73 71 68 62 57 55 58 61 62 61 59 58 56 53 50 50 51 52 52 52 52 51
66 63 61 62 62 60 58 57 57 59 60 62 64 65 65 65 65 67 69 73 76 78 80 83 85 87 89 89 88 90 92 90 89 91 91 90 88 86 85 87 86 80 76 73 72 69 66 65 66 66 65 66 66 63 59 54 54 54 53 53 53 52 51
61 60 60 60 61 59 57 56 57 59 61 61 62 64 66 65 66 69 72 75 78 80 82 86 89 90 91 91 90 91 93 91 88 89 91 92 90 87 87 89 90 88 84 80 78 80 79 76 72 71 72 73 71 69 64 59 57 57 56 55 56 56 55
58 58 57 57 56 55 54 54 55 57 57 58 59 62 64 65 67 70 75 78 81 85 90 93 95 95 93 92 92 93 94 93 91 92 92 91 88 87 89 90 90 92 93 90 87 88 90 87 82 79 78 78 77 76 72 68 65 63 62 62 63 63 64
59 57 55 53 52 54 56 57 58 58 58 58 59 60 61 62 65 71 79 86 89 90 93 96 97 96 95 94 93 92 92 92 92 93 92 91 89 88 88 90 91 92 95 95 93 93 94 92 87 82 81 81 82 81 79 77 76 75 74 73 72 71 71
58 56 53 51 51 54 59 61 61 61 62 62 61 62 62 62 64 69 79 90 96 95 92 93 94 92 92 93 92 91 91 91 92 92 92 92 93 92 91 92 93 93 94 94 91 90 92 92 88 84 83 83 84 83 82 83 84 84 84 83 81 78 77
58 57 56 55 53 52 55 56 55 56 59 62 64 64 64 64 65 68 73 79 87 90 88 89 91 90 89 89 89 87 86 87 90 92 92 93 93 94 93 92 92 91 91 92 90 88 90 92 90 88 87 87 87 87 87 86 85 85 87 89 89 86 84
62 62 60 60 58 55 52 51 50 50 52 57 61 64 66 67 69 72 73 73 76 78 80 83 86 87 86 86 87 87 86 86 87 89 91 92 92 92 92 91 91 92 92 92 92 91 92 93 93 92 91 90 91 91 89 86 84 85 89 94 94 91 89
64 64 63 62 61 57 55 54 55 54 53 55 60 64 66 67 68 70 72 73 74 75 75 76 78 80 83 84 84 84 87 88 88 88 89 89 89 91 92 91 92 94 95 94 94 94 94 93 92 92 92 92 91 90 88 86 86 88 90 91 90 87 85
63 62 63 62 59 56 54 54 57 60 61 62 65 68 69 68 69 71 73 76 79 79 78 77 76 78 81 82 81 80 82 83 84 83 83 82 81 83 86 87 88 88 90 92 92 92 92 90 89 89 89 88 89 89 88 88 89 90 88 85 83 80 79
59 59 59 58 56 53 51 50 52 55 59 62 64 67 69 68 69 72 74 75 77 77 77 76 77 78 79 81 81 80 79 78 77 76 76 76 76 77 79 82 83 83 84 88 89 87 87 87 88 88 87 88 90 91 91 89 90 90 88 84 81 79 78
55 55 55 55 55 54 51 50 50 49 51 53 54 56 60 62 63 66 69 71 73 75 75 76 78 80 81 82 82 81 80 79 78 76 74 74 75 77 80 80 79 78 80 83 86 86 85 86 87 88 88 87 86 86 87 86 86 86 85 82 80 79 78
57 56 55 56 57 57 56 55 55 53 52 51 49 49 52 54 55 57 59 61 65 68 70 73 75 78 80 81 79 79 80 80 79 78 75 73 72 74 76 78 78 77 76 76 77 78 78 78 79 81 83 83 82 82 84 85 85 85 83 80 79 78 74
61 60 61 62 64 66 66 64 62 61 59 57 56 55 55 56 56 56 55 57 59 61 63 65 68 70 73 75 77 78 78 78 78 78 76 75 72 70 69 70 72 72 71 70 69 69 68 66 64 64 65 67 68 70 71 72 72 73 70 68 66 63 60
65 65 67 70 72 72 72 70 68 66 64 63 63 63 63 63 62 60 59 59 59 60 59 59 61 63 65 68 71 73 75 75 75 75 75 75 73 70 67 66 66 66 66 65 64 63 61 58 54 51 50 50 51 51 51 50 50 49 48 46 44 42 41
67 67 68 70 72 72 71 71 70 69 67 66 65 65 65 66 64 63 61 60 59 58 57 57 58 59 62 64 66 68 69 70 71 71 71 72 71 68 65 64 63 62 61 61 60 60 59 58 55 53 51 49 48 47 46 45 45 45 44 43 41 39 38
66 64 63 63 63 62 63 64 66 66 66 65 65 64 64 64 63 62 61 60 59 59 58 57 56 56 58 60 62 63 63 64 66 68 69 70 69 66 63 63 62 60 59 57 57 58 57 57 57 56 54 52 51 50 49 48 48 48 48 47 46 45 43